Clinton-Sherman, OK

4:28 PM CDT on October 23, 2017 (GMT -0500)
Clinton-Sherman

Weather History for KCSM - July, 2013

Change the Weather History Date:

Thursday, July 4, 2013

  Actual Average Record
Temperature  
Mean Temperature 80 °F -  
Max Temperature 93 °F 91 °F 100 °F (2001)
Min Temperature 68 °F 69 °F 57 °F (1997)
Cooling Degree Days 14    
Growing Degree Days 30 (Base 50)    
Moisture  
Dew Point 49 °F    
Average Humidity 38    
Maximum Humidity 61    
Minimum Humidity 20    
Precipitation  
Precipitation 0.00 in - - ()
Sea Level Pressure  
Sea Level Pressure 29.93 in    
Wind  
Wind Speed 10 mph (SSE)    
Max Wind Speed 16 mph    
Max Gust Speed 25 mph    
Visibility 10 miles    
Events Thunderstorm    
Averages and records for this station are not official NWS values.
T = Trace of Precipitation, MM = Missing Value Source: NWS Daily Summary

Daily Weather History Graph

Daily Weather History Graph

Search for Another Location

Airport or City:

Trip Planner

Search our weather history database for the weather conditions in past years. The results will help you decide how hot, cold, wet, or windy it might be!

Date:

Astronomy

Jul. 04, 2013 Rise Set
Actual Time 6:27 AM CDT 8:55 PM CDT
Civil Twilight 5:57 AM CDT 9:24 PM CDT
Nautical Twilight 5:20 AM CDT 10:01 PM CDT
Astronomical Twilight 4:40 AM CDT 10:41 PM CDT
Moon 3:42 AM CDT (7/4) 6:03 PM CDT (7/4)
Length of Visible Light 15h 27m
Length of Day
14h 28m
Waning Crescent, 11% of the Moon is Illuminated
Jul 4
Waning Crescent
Jul 8
New
Jul 15
First Quarter
Jul 22
Full
Jul 29
Last Quarter

Hourly Weather History & Observations

Time (CDT) Temp. Dew Point Humidity Pressure Visibility Wind Dir Wind Speed Gust Speed Precip Events Conditions
12:53 AM 70.0 °F 48.9 °F 47% 29.96 in 10.0 mi SE 9.2 mph - N/A   Clear
1:53 AM 71.1 °F 48.9 °F 45% 29.95 in 10.0 mi SSE 8.1 mph - N/A   Mostly Cloudy
2:53 AM 68.0 °F 48.0 °F 49% 29.94 in 10.0 mi SSE 9.2 mph - N/A   Partly Cloudy
3:53 AM 68.0 °F 48.0 °F 49% 29.94 in 10.0 mi SSE 9.2 mph - N/A   Clear
4:53 AM 71.1 °F 48.0 °F 44% 29.94 in 10.0 mi South 11.5 mph - 0.00 in   Overcast
5:06 AM 71.6 °F 48.2 °F 43% 30.02 in 10.0 mi SSE 8.1 mph - N/A Thunderstorm Overcast
5:23 AM 68.0 °F 50.0 °F 52% 30.01 in 10.0 mi SSE 13.8 mph - N/A   Scattered Clouds
5:53 AM 69.1 °F 48.9 °F 49% 29.94 in 10.0 mi South 11.5 mph - N/A   Scattered Clouds
6:53 AM 68.0 °F 51.1 °F 55% 29.97 in 10.0 mi South 13.8 mph - 0.00 in   Mostly Cloudy
7:53 AM 68.0 °F 53.1 °F 59% 29.99 in 10.0 mi SE 10.4 mph - N/A   Overcast
8:53 AM 69.1 °F 55.0 °F 61% 29.99 in 10.0 mi ESE 8.1 mph - 0.00 in   Clear
9:53 AM 75.9 °F 53.1 °F 45% 29.99 in 10.0 mi SSE 8.1 mph - N/A   Overcast
10:53 AM 80.1 °F 48.9 °F 34% 29.97 in 10.0 mi SSE 9.2 mph - N/A   Scattered Clouds
11:53 AM 82.9 °F 48.9 °F 31% 29.97 in 10.0 mi South 10.4 mph - N/A   Mostly Cloudy
12:53 PM 87.1 °F 48.9 °F 27% 29.95 in 10.0 mi SSE 12.7 mph 18.4 mph N/A   Clear
1:53 PM 89.1 °F 46.0 °F 22% 29.92 in 10.0 mi South 9.2 mph 19.6 mph N/A   Clear
2:53 PM 89.1 °F 46.9 °F 23% 29.91 in 10.0 mi South 11.5 mph 17.3 mph N/A   Mostly Cloudy
3:53 PM 91.0 °F 46.9 °F 22% 29.88 in 10.0 mi SSE 9.2 mph - N/A   Partly Cloudy
4:53 PM 91.0 °F 45.0 °F 20% 29.86 in 10.0 mi SSE 12.7 mph 21.9 mph N/A   Partly Cloudy
5:53 PM 91.0 °F 46.0 °F 21% 29.84 in 10.0 mi SSE 13.8 mph - N/A   Mostly Cloudy
6:53 PM 91.9 °F 45.0 °F 20% 29.83 in 10.0 mi South 16.1 mph 25.3 mph N/A   Mostly Cloudy
7:53 PM 89.1 °F 45.0 °F 22% 29.84 in 10.0 mi SSE 15.0 mph - N/A   Scattered Clouds
8:53 PM 84.9 °F 46.9 °F 27% 29.86 in 10.0 mi SE 10.4 mph - N/A   Clear
9:53 PM 80.1 °F 51.1 °F 36% 29.88 in 10.0 mi ESE 12.7 mph - N/A   Clear
10:53 PM 78.1 °F 51.1 °F 39% 29.89 in 10.0 mi ESE 12.7 mph - N/A   Clear
11:53 PM 75.9 °F 53.1 °F 45% 29.91 in 10.0 mi SE 11.5 mph - N/A   Clear